PD0HRY-12 Weather Reports


time (UTC)temp
C
wind
direction
speed
KPH
gust
KPH
rain 1hr
cm
rain 24hr
cm
rain mn
cm
humidity
%
barometer
mb
20260507083002 12 24 0.0 0.0 0.00 0.00 0.00 65 1008.0
20260507080000 12 58 0.0 0.0 0.00 0.00 0.00 70 1008.0
20260507073004 11 334 0.0 0.0 0.00 0.00 0.00 73 1008.0
20260507070008 10 341 0.0 0.0 0.00 0.00 0.00 75 1008.0
20260507063002 9 332 0.0 0.0 0.00 0.00 0.00 76 1007.0
20260507060005 7 22 0.0 0.0 0.00 0.00 0.00 83 1007.0
20260507053004 6 307 0.0 0.0 0.00 0.00 0.00 86 1007.0
20260507050002 6 321 0.0 0.0 0.00 0.00 0.00 87 1007.0
20260507043001 6 334 0.0 0.0 0.00 0.00 0.00 88 1007.0
20260507040005 6 300 0.0 0.0 0.00 0.00 0.00 88 1006.0
20260507033004 6 292 0.0 0.0 0.00 0.00 0.00 87 1006.0
20260507030002 6 279 0.0 0.0 0.00 0.00 0.00 86 1006.0
20260507023001 7 337 0.0 0.0 0.00 0.00 0.00 85 1006.0
20260507020005 7 353 0.0 0.0 0.00 0.00 0.00 84 1006.0
20260507013004 7 15 0.0 0.0 0.00 0.00 0.00 84 1006.0
20260507010003 7 1 0.0 0.0 0.00 0.00 0.00 83 1006.0
20260507003001 7 64 0.0 0.0 0.00 0.00 0.00 84 1005.0
20260507000005 8 16 0.0 0.0 0.00 0.00 0.00 82 1005.0
20260506233003 8 76 0.0 0.0 0.00 0.00 0.00 79 1005.0
20260506230002 9 5 0.0 0.0 0.00 0.00 0.00 78 1005.0
20260506223000 9 340 0.0 0.0 0.00 0.00 0.00 80 1005.0
20260506220005 10 355 0.0 0.0 0.00 0.00 0.00 81 1005.0
20260506213007 10 325 0.0 0.0 0.00 0.00 0.00 80 1005.0
20260506210001 10 331 0.0 0.0 0.00 0.00 0.00 80 1005.0
20260506203005 10 338 0.0 0.0 0.00 0.00 0.00 79 1005.0
20260506200003 10 6 0.0 0.0 0.00 0.00 0.00 80 1004.0
20260506193002 10 7 0.0 0.0 0.00 0.00 0.00 77 1004.0
20260506190001 10 70 0.0 0.0 0.00 0.00 0.00 74 1004.0
20260506183005 11 56 0.0 0.0 0.00 0.00 0.00 69 1004.0
20260506180003 11 34 0.0 0.0 0.00 0.00 0.00 67 1003.0
20260506173001 11 13 0.0 0.0 0.00 0.00 0.00 66 1003.0
20260506170004 11 349 0.0 0.0 0.00 0.00 0.00 66 1002.0
20260506163003 11 345 0.0 0.0 0.00 0.00 0.00 67 1002.0
20260506160001 11 53 0.0 0.0 0.00 0.00 0.00 66 1002.0
20260506153005 11 65 0.0 0.0 0.00 0.00 0.00 68 1002.0
20260506150003 10 347 0.0 0.0 0.00 0.00 0.00 73 1002.0
20260506143002 10 36 0.0 0.0 0.00 0.00 0.00 75 1002.0
20260506140000 10 37 0.0 0.0 0.00 0.00 0.00 76 1002.0
20260506133003 10 36 0.0 0.0 0.00 0.00 0.00 72 1002.0
20260506130002 11 334 0.0 0.0 0.00 0.00 0.00 70 1002.0
20260506123000 11 343 0.0 0.0 0.00 0.00 0.00 70 1001.0
20260506120004 11 354 0.0 0.0 0.00 0.00 0.00 68 1002.0
20260506113007 11 11 0.0 0.0 0.00 0.00 0.00 66 1002.0
20260506110001 11 315 0.0 0.0 0.00 0.00 0.00 66 1001.0
20260506103004 10 18 0.0 0.0 0.00 0.00 0.00 69 1001.0
20260506100003 10 12 0.0 0.0 0.00 0.00 0.00 70 1001.0
20260506093001 10 291 0.0 0.0 0.00 0.00 0.00 69 1001.0
20260506090005 10 25 0.0 0.0 0.00 0.00 0.00 71 1001.0